Left ArrowRight Arrow

Hourly Observations for April 4, 2022

Temp ( °F °C ) Dew Point ( °F °C ) Humidity (%) Winds ( mph kmh ) Pressure ( in mb ) Visibility ( mi km ) Precip ( " mm )
12:51 am 00:51 Cloudy 40 4.4 28 -2.2 63 63 WNW 10 17 29.73 1007 10 16 0.00 0.00
4:51 am 04:51 Cloudy 39 3.9 26 -3.3 60 60 NW 15 24 29.75 1007 10 16 0.00 0.00
5:51 am 05:51 Cloudy 38 3.3 27 -2.8 65 65 NW 10 17 29.77 1008 10 16 0.00 0.00
6:51 am 06:51 Cloudy 36 2.2 29 -1.7 76 76 WNW 12 19 29.78 1009 10 16 0.00 0.00
7:51 am 07:51 Partly Cloudy 37 2.8 28 -2.2 70 70 WNW 14 22 29.79 1009 10 16 0.00 0.00
8:51 am 08:51 Mostly Sunny 42 5.6 26 -3.3 53 53 NW 15 24 29.79 1009 10 16 0.00 0.00
9:51 am 09:51 Mostly Sunny 45 7.2 24 -4.4 44 44 NNW 20 31 29.79 1009 10 16 0.00 0.00
10:51 am 10:51 Mostly Sunny 47 8.3 23 -5 39 39 NW 15 24 29.78 1009 10 16 0.00 0.00
11:51 am 11:51 Mostly Sunny 49 9.4 19 -7.2 31 31 N 23 37 29.77 1008 10 16 0.00 0.00
12:51 pm 12:51 Mostly Sunny 51 10.6 20 -6.7 29 29 NW 20 31 29.77 1008 10 16 0.00 0.00
1:51 pm 13:51 Mostly Sunny 52 11.1 19 -7.2 27 27 WNW 22 35 29.78 1009 10 16 0.00 0.00
2:51 pm 14:51 Sunny 53 11.7 18 -7.8 25 25 WNW 18 30 29.78 1009 10 16 0.00 0.00
3:51 pm 15:51 Sunny 54 12.2 16 -8.9 22 22 NW 14 22 29.78 1009 10 16 0.00 0.00
4:51 pm 16:51 Sunny 54 12.2 16 -8.9 22 22 NW 17 28 29.79 1009 10 16 0.00 0.00
5:51 pm 17:51 Mostly Sunny 53 11.7 13 -10.6 20 20 NW 13 20 29.80 1009 10 16 0.00 0.00
6:51 pm 18:51 Mostly Sunny 50 10 13 -10.6 22 22 NW 12 19 29.82 1010 10 16 0.00 0.00
7:51 pm 19:51 Partly Cloudy 47 8.3 14 -10 26 26 NW 9 15 29.85 1011 10 16 0.00 0.00
8:51 pm 20:51 Partly Cloudy 45 7.2 16 -8.9 31 31 NNW 8 13 29.89 1012 10 16 0.00 0.00
9:51 pm 21:51 Partly Cloudy 43 6.1 17 -8.3 35 35 N 7 11 29.90 1013 10 16 0.00 0.00
10:51 pm 22:51 Partly Cloudy 42 5.6 18 -7.8 38 38 NNW 7 11 29.92 1013 10 16 0.00 0.00
11:51 pm 23:51 Partly Cloudy 40 4.4 20 -6.7 45 45 WNW 6 9 29.93 1014 10 16 0.00 0.00

Powered by Vaisala Xweather